[[{"header":{"parameterUnit":"m.s-1","parameterCategory":2,"la1":30.2991,"la2":30.254,"lo1":-89.0895,"lo2":-89.0444,"dy":0.0017,"dx":0.0017,"nx":28,"ny":28,"refTime":"2024-07-17T03:00:00:Z","depth":"0","parameterNumber":2,"parameterNumberName":"U-component_of_CURRENTS"},"data":[0,0,0,0,0,0,0,0,0,0,0,0,0,0,0,0,0,0,0,0,0,0,0,0,0,0,0,0,0,0,0,0,0,0,0,0,0,0,0,0,0,0,0,0,0,0,0,0,0,0,0,0,0,0,0,0,0,0,0.4245,0.4247,0,0.439,0.4392,0.4393,0.4451,0.4451,0.445,0.445,0.4418,0.4417,0.4417,0,0,0,0,0,0,0,0,0,0,0,0,0,0.402,0.4024,0.4245,0.4247,0.4249,0.439,0.4392,0.4394,0.4451,0.4451,0.445,0.445,0.4418,0.4418,0.4417,0,0,0,0,0,0,0,0,0,0,0,0,0,0.4134,0.4025,0.4245,0.4297,0.4303,0.439,0.4392,0.4394,0.4451,0.4451,0.445,0.445,0.4419,0.4418,0.4417,0.4414,0,0,0.4413,0.4413,0,0,0,0,0,0,0,0,0.4128,0.4142,0.4287,0.4293,0.4301,0.4405,0.4301,0.4393,0.4451,0.4392,0.445,0.445,0.4399,0.44,0.4426,0.4412,0.4411,0.4413,0.4412,0.4412,0.4412,0,0,0,0,0,0,0,0.412,0.4136,0.43,0.4289,0.4298,0.4314,0.4329,0.4319,0.4389,0.4397,0.4402,0.4423,0.4401,0.4427,0.4425,0.4411,0.4413,0.4412,0.4411,0.4411,0.4489,0.4492,0,0,0,0,0,0,0.4108,0.4129,0.4296,0.4305,0.4215,0.4318,0.4336,0.4369,0.4394,0.4399,0.4423,0.4425,0.4429,0.4427,0.4424,0.4505,0.4412,0.4411,0.441,0.4486,0.449,0.4493,0,0,0,0,0,0,0.4103,0.4122,0.429,0.4221,0.4244,0.4323,0.436,0.4372,0.4387,0.4416,0.4417,0.4423,0.4429,0.4426,0.4406,0.45,0.441,0.4409,0.4483,0.4487,0.4491,0.4611,0,0,0,0,0,0,0.4096,0.412,0.4135,0.4221,0.4248,0.4344,0.4361,0.4375,0.4402,0.4406,0.4416,0.4415,0.4429,0.4408,0.4405,0.4497,0.4409,0.448,0.4485,0.449,0.4604,0.4619,0.4632,0,0,0,0,0,0.4088,0.413,0.4135,0.4155,0.4268,0.4345,0.436,0.4412,0.4402,0.442,0.4413,0.4414,0.4442,0.4407,0.4404,0.4498,0.4477,0.4484,0.4489,0.4598,0.4616,0.4631,0,0,0,0,0,0,0.4068,0.4142,0.415,0.4218,0.427,0.4356,0.4393,0.4399,0.4413,0.441,0.4406,0.4405,0.4454,0.4431,0.4393,0.4538,0.4477,0.4482,0.4561,0.4577,0.4591,0.4677,0.4408,0,0,0,0,0,0.4061,0.4099,0.4169,0.4224,0.4252,0.4306,0.4338,0.4369,0.4398,0.4406,0.4417,0.4436,0.4482,0.4483,0.4519,0.4543,0.4587,0.4616,0.463,0.4642,0.4711,0.4803,0.4833,0.4513,0.4513,0.4513,0,0,0.407,0.4117,0.414,0.4218,0.4269,0.4341,0.4326,0.4387,0.446,0.4395,0.4476,0.4478,0.45,0.4577,0.4597,0.4559,0.4757,0.465,0.466,0.4725,0.4813,0.4844,0.4872,0.4517,0.4516,0.4516,0,0,0.4121,0.4148,0.4197,0.4245,0.4315,0.4358,0.4364,0.4438,0.4483,0.4533,0.4543,0.459,0.4615,0.4692,0.4723,0.4821,0.4836,0.4821,0.4952,0.5038,0.5066,0.5091,0.5193,0.5227,0.4817,0.4818,0.4818,0,0.4117,0.4216,0.4223,0.4294,0.4352,0.4364,0.4442,0.4503,0.4561,0.4606,0.4576,0.4698,0.471,0.4841,0.491,0.4866,0.4903,0.488,0.5059,0.5085,0.5109,0.5208,0.5243,0.4824,0.4823,0.4823,0.4822,0,0.4217,0.4296,0.434,0.4431,0.4472,0.4554,0.4623,0.4673,0.4704,0.4765,0.4881,0.4905,0.4979,0.5006,0.5,0.5183,0.5153,0.5072,0.502,0.5149,0.5244,0.5279,0.4834,0.4831,0.4829,0.4828,0,0,0.4216,0.4377,0.4393,0.4467,0.4559,0.4612,0.4722,0.484,0.4929,0.499,0.5124,0.5236,0.523,0.527,0.5261,0.536,0.5571,0.5303,0.5304,0.5414,0.5781,0.561,0.563,0.5497,0.5504,0.5509,0.5781,0,0.4301,0.4472,0.4513,0.4668,0.4768,0.4802,0.4902,0.499,0.5072,0.5199,0.5268,0.5385,0.5333,0.5376,0.547,0.5554,0.5667,0.5507,0.5634,0.5641,0.5479,0.5667,0.5341,0.5542,0.5815,0.5821,0.5825,0,0.4386,0.4503,0.4671,0.4821,0.4857,0.4933,0.5078,0.5163,0.532,0.5385,0.5491,0.5536,0.5723,0.5636,0.587,0.5757,0.5814,0.5864,0.5872,0.5709,0.5535,0.5456,0.5595,0.5428,0.5878,0.5874,0.587,0,0.441,0.4603,0.4745,0.4803,0.4965,0.5031,0.5096,0.5225,0.5309,0.5511,0.5601,0.5766,0.5875,0.5978,0.6057,0.5991,0.6292,0.6187,0.6098,0.6086,0.5842,0.5796,0.5846,0.6385,0.6384,0.6383,0.6383,0,0.4497,0.4614,0.4779,0.4866,0.5022,0.5074,0.5215,0.5315,0.5442,0.5549,0.5685,0.5812,0.5969,0.6112,0.6161,0.6241,0.6362,0.6211,0.6169,0.5869,0.5825,0.5688,0.5634,0.6394,0.6391,0.6389,0.6388,0,0.4526,0.4632,0.4817,0.5001,0.5049,0.5151,0.5265,0.5336,0.5477,0.5627,0.5697,0.592,0.6104,0.6215,0.6423,0.6366,0.6274,0.644,0.6087,0.5998,0.5713,0.5677,0.5615,0.546,0.6438,0.6435,0.6434,0,0.4573,0.4679,0.49,0.4969,0.5061,0.519,0.5233,0.5354,0.5409,0.5662,0.5721,0.5978,0.6089,0.6327,0.6305,0.6377,0.6206,0.6109,0.5929,0.5732,0.5665,0.5491,0.5354,0.5676,0.5668,0.5662,0.5657,0,0.4678,0.4749,0.4879,0.5002,0.5084,0.5171,0.5249,0.5295,0.5403,0.5523,0.5673,0.5801,0.6023,0.5943,0.6023,0.602,0.578,0.5975,0.5865,0.5191,0.4918,0.473,0.549,0.5599,0.5604,0.5609,0.5612,0.5614,0.4728,0.4818,0.492,0.502,0.5075,0.5074,0.5065,0.5112,0.5154,0.5202,0.5461,0.5482,0.5555,0.5619,0.5591,0.5323,0.5419,0.5131,0.5154,0.5037,0.4722,0.5369,0.5339,0.5343,0.5347,0.535,0.5353,0,0.4752,0.4803,0.4898,0.4949,0.4904,0.4974,0.4977,0.4878,0.4815,0.4909,0.4971,0.4912,0.4827,0.4852,0.471,0.4527,0.4344,0.44,0.4094,0.4039,0.4697,0.4488,0.4151,0.4151,0.4152,0.4152,0.4152,0.4152,0.4756,0.4799,0.4816,0.4731,0.4724,0.4566,0.4521,0.4412,0.4387,0.4218,0.4113,0.4192,0.4341,0.4292,0.4067,0.3965,0.3702,0.3485,0.3595,0.4048,0.4116,0.4182,0.3972,0.3532,0.3532,0.269,0.2683,0.2679]},{"header":{"parameterUnit":"m.s-1","parameterCategory":2,"la1":30.2991,"la2":30.254,"lo1":-89.0895,"lo2":-89.0444,"dy":0.0017,"dx":0.0017,"nx":28,"ny":28,"refTime":"2024-07-17T03:00:00:Z","depth":"0","parameterNumber":3,"parameterNumberName":"V-component_of_CURRENTS"},"data":[0,0,0,0,0,0,0,0,0,0,0,0,0,0,0,0,0,0,0,0,0,0,0,0,0,0,0,0,0,0,0,0,0,0,0,0,0,0,0,0,0,0,0,0,0,0,0,0,0,0,0,0,0,0,0,0,0,0,0.0181,0.0181,0,0.0122,0.0122,0.0121,0.0054,0.0053,0.0052,0.0052,-0.0054,-0.0056,-0.0058,0,0,0,0,0,0,0,0,0,0,0,0,0,0.0174,0.0175,0.0181,0.0181,0.018,0.0123,0.0122,0.0121,0.0054,0.0053,0.0052,0.0051,-0.0054,-0.0056,-0.0058,0,0,0,0,0,0,0,0,0,0,0,0,0,0.0151,0.0175,0.0182,0.0142,0.0138,0.0123,0.0122,0.012,0.0054,0.0053,0.0052,0.0051,-0.0053,-0.0056,-0.0059,-0.0053,0,0,-0.0068,-0.007,0,0,0,0,0,0,0,0,0.0152,0.0151,0.0148,0.0144,0.014,0.0096,0.008,0.0061,0.0055,0.0084,0.0052,0.005,-0.0006,-0.0013,-0.0024,-0.0058,-0.0063,-0.0069,-0.007,-0.0072,-0.0073,0,0,0,0,0,0,0,0.0154,0.0153,0.0156,0.0148,0.0143,0.0105,0.0101,0.0076,0.0044,0.0081,0.0077,0.0074,-0.0009,-0.002,-0.0027,-0.0064,-0.0068,-0.0071,-0.0073,-0.0074,-0.007,-0.0069,0,0,0,0,0,0,0.017,0.0155,0.0158,0.0155,0.0145,0.0107,0.0102,0.011,0.0045,0.0035,0.0075,0.0071,-0.0014,-0.0023,-0.0031,0.0001,-0.0072,-0.0075,-0.0076,-0.0072,-0.007,-0.0068,0,0,0,0,0,0,0.017,0.0171,0.0161,0.0154,0.015,0.0109,0.0118,0.0109,0.0098,0.0041,0.0029,0.0073,-0.0016,-0.0026,-0.0041,-0.0005,-0.0076,-0.0079,-0.0075,-0.0072,-0.0069,0.0045,0,0,0,0,0,0,0.017,0.0172,0.0186,0.0156,0.0151,0.0166,0.0119,0.0109,0.0099,0.0093,0.0036,0.0024,-0.0018,-0.0036,-0.0044,-0.0011,-0.0081,-0.0077,-0.0073,-0.007,0.0039,0.0051,0.0062,0,0,0,0,0,0.017,0.0196,0.0187,0.0187,0.0171,0.0167,0.0162,0.0126,0.0101,0.0108,0.0069,0.0026,-0.0019,-0.0037,-0.0047,-0.0014,-0.0079,-0.0074,-0.007,0.0033,0.0049,0.0062,0,0,0,0,0,0,0.0204,0.0191,0.018,0.0202,0.0192,0.0157,0.0163,0.0136,0.0112,0.0104,0.0043,0.0031,0.0033,-0.0002,-0.0022,0.0001,-0.0052,-0.005,0.003,0.0044,0.0056,0.0117,-0.0084,0,0,0,0,0,0.0219,0.0234,0.0215,0.0235,0.0234,0.0201,0.0194,0.0172,0.0145,0.0133,0.0092,0.0059,0.0045,0.0034,0.001,0.0019,0.001,0.0037,0.0049,0.0059,0.0104,0.0124,0.0142,-0.0053,-0.0054,-0.0054,0,0,0.0237,0.0234,0.0241,0.0243,0.0232,0.0254,0.0194,0.0195,0.0217,0.0126,0.0138,0.0095,0.0057,0.0068,0.0067,0.0041,0.0106,0.0065,0.0074,0.0114,0.013,0.015,0.0167,-0.0051,-0.0051,-0.0052,0,0,0.029,0.0281,0.0315,0.0316,0.0311,0.0294,0.03,0.0272,0.0262,0.0266,0.0214,0.0207,0.0165,0.0162,0.0152,0.0221,0.0166,0.0195,0.0305,0.0323,0.034,0.0355,0.0349,0.0363,0.0203,0.0204,0.0204,0,0.032,0.0361,0.0324,0.0361,0.0376,0.0321,0.0367,0.0356,0.0326,0.0341,0.0287,0.0278,0.0227,0.0279,0.0293,0.0252,0.0237,0.025,0.034,0.0355,0.0368,0.0359,0.0373,0.021,0.0209,0.0208,0.0208,0,0.0399,0.0434,0.0457,0.049,0.0493,0.0526,0.0507,0.0513,0.0485,0.0477,0.0507,0.0448,0.0453,0.0426,0.0374,0.0448,0.0398,0.0349,0.0307,0.0395,0.0379,0.0391,0.0218,0.0216,0.0214,0.0213,0,0,0.0478,0.0511,0.0525,0.0564,0.0569,0.0587,0.0625,0.0661,0.0712,0.0673,0.0751,0.0709,0.0677,0.0668,0.0604,0.0611,0.0662,0.0523,0.0521,0.0524,0.0686,0.0608,0.0612,0.0617,0.062,0.0623,0.063,0,0.0567,0.0666,0.065,0.0745,0.0795,0.0763,0.0812,0.0827,0.0827,0.0882,0.085,0.0888,0.077,0.0779,0.0771,0.0712,0.0702,0.0664,0.0597,0.0596,0.0521,0.0628,0.0558,0.0556,0.0641,0.0643,0.0644,0,0.0663,0.0718,0.0826,0.089,0.091,0.0954,0.1027,0.1059,0.1108,0.1115,0.1144,0.1108,0.1146,0.1014,0.098,0.0956,0.0838,0.0766,0.0763,0.0672,0.0543,0.0486,0.0574,0.0349,0.0662,0.0661,0.0659,0,0.075,0.0844,0.0938,0.0962,0.102,0.1069,0.1099,0.1143,0.1204,0.128,0.1353,0.1349,0.1396,0.1275,0.1109,0.1055,0.1047,0.0951,0.0767,0.0758,0.0683,0.0663,0.056,0.0913,0.0913,0.0913,0.0913,0,0.0853,0.0931,0.0994,0.1047,0.1174,0.1167,0.1292,0.1325,0.1407,0.1533,0.149,0.1613,0.1465,0.1424,0.1216,0.1055,0.1131,0.0833,0.0779,0.0716,0.0699,0.0485,0.0354,0.0913,0.0913,0.0913,0.0913,0,0.0926,0.097,0.1085,0.1177,0.1217,0.1303,0.1412,0.15,0.1571,0.1745,0.179,0.1855,0.1841,0.1634,0.1473,0.1229,0.0903,0.0937,0.0862,0.08,0.0414,0.0293,0.0159,0.0078,0.0778,0.0776,0.0775,0,0.0979,0.1043,0.1179,0.1262,0.1311,0.143,0.1515,0.1583,0.1688,0.1907,0.2018,0.208,0.2156,0.1893,0.1491,0.1143,0.0894,0.0789,0.0674,0.0429,0.0255,0.0164,0.01,0.0607,0.0604,0.0602,0.0601,0,0.1074,0.1115,0.1209,0.1366,0.148,0.1606,0.1738,0.1853,0.1972,0.2153,0.2394,0.2487,0.2273,0.1958,0.1452,0.1162,0.0618,0.0735,0.0518,0.0166,0.003,-0.0087,0.0544,0.0582,0.0584,0.0585,0.0586,0.0587,0.1147,0.1229,0.134,0.1482,0.1612,0.1767,0.189,0.2058,0.2274,0.2553,0.2636,0.2783,0.2289,0.165,0.1261,0.0458,0.0514,0.018,0.007,0.0016,-0.0107,0.0477,0.0424,0.0424,0.0425,0.0426,0.0426,0,0.1231,0.1307,0.1445,0.1614,0.1741,0.1796,0.2023,0.2169,0.2449,0.2693,0.2903,0.2673,0.2054,0.139,0.0361,-0.0138,-0.0304,-0.0411,-0.0558,-0.0576,-0.0026,-0.0082,-0.029,-0.029,-0.029,-0.029,-0.029,-0.0289,0.1285,0.1408,0.1463,0.1676,0.1793,0.1982,0.2118,0.2373,0.2571,0.283,0.2861,0.288,0.2311,0.0632,-0.0531,-0.0781,-0.1034,-0.1147,-0.1222,-0.0889,-0.0842,-0.0798,-0.0879,-0.1252,-0.1253,-0.1733,-0.1739,-0.1743]}],[{"header":{"parameterUnit":"m.s-1","parameterCategory":2,"la1":30.2991,"la2":30.254,"lo1":-89.0895,"lo2":-89.0444,"dy":0.0017,"dx":0.0017,"nx":28,"ny":28,"refTime":"2024-07-17T03:00:00:Z","depth":"2","parameterNumber":2,"parameterNumberName":"U-component_of_CURRENTS"},"data":[0,0,0,0,0,0,0,0,0,0,0,0,0,0,0,0,0,0,0,0,0,0,0,0,0,0,0,0,0,0,0,0,0,0,0,0,0,0,0,0,0,0,0,0,0,0,0,0,0,0,0,0,0,0,0,0,0,0,0.3195,0.3197,0,0.321,0.3208,0.3207,0.3194,0.3195,0.3195,0.3196,0.3287,0.3289,0.329,0,0,0,0,0,0,0,0,0,0,0,0,0,0.3106,0.3107,0.3195,0.3197,0.3198,0.321,0.3208,0.3207,0.3193,0.3195,0.3196,0.3197,0.3287,0.3289,0.3291,0,0,0,0,0,0,0,0,0,0,0,0,0,0.312,0.3107,0.3195,0.3205,0.3207,0.321,0.3208,0.3207,0.3193,0.3195,0.3196,0.3197,0.3286,0.3288,0.3291,0.3278,0,0,0.3298,0.3299,0,0,0,0,0,0,0,0,0.3119,0.3121,0.3202,0.3204,0.3207,0.3215,0.3211,0.324,0.3193,0.3181,0.3196,0.3198,0.328,0.3283,0.3258,0.3282,0.3286,0.3298,0.33,0.3301,0.3301,0,0,0,0,0,0,0,0.3118,0.3121,0.3185,0.3204,0.3207,0.3193,0.3195,0.3215,0.3212,0.3183,0.3186,0.3212,0.328,0.3256,0.3261,0.3287,0.3298,0.33,0.3302,0.3303,0.3355,0.3355,0,0,0,0,0,0,0.315,0.312,0.3185,0.3187,0.3184,0.3195,0.3196,0.3198,0.321,0.3217,0.3211,0.3212,0.3251,0.3258,0.3265,0.3391,0.3301,0.3303,0.3304,0.3355,0.3355,0.3355,0,0,0,0,0,0,0.3147,0.3154,0.3184,0.3168,0.3173,0.3197,0.3198,0.3198,0.3232,0.3234,0.3239,0.3254,0.3253,0.3261,0.3322,0.339,0.3304,0.3306,0.3355,0.3355,0.3355,0.3556,0,0,0,0,0,0,0.3144,0.3152,0.3174,0.3169,0.3176,0.324,0.3198,0.3198,0.3251,0.3253,0.3272,0.3278,0.3254,0.3319,0.3325,0.3392,0.3308,0.3355,0.3355,0.3355,0.355,0.3563,0.3574,0,0,0,0,0,0.314,0.3177,0.3173,0.3184,0.32,0.3244,0.3246,0.3255,0.3253,0.3285,0.3286,0.328,0.3321,0.3322,0.3329,0.3398,0.3355,0.3355,0.3355,0.3544,0.356,0.3574,0,0,0,0,0,0,0.3158,0.318,0.3176,0.3219,0.3255,0.325,0.3275,0.3291,0.331,0.3314,0.3304,0.331,0.3375,0.3345,0.3347,0.3398,0.3328,0.3329,0.3469,0.3484,0.3496,0.3549,0.331,0,0,0,0,0,0.3171,0.3198,0.3223,0.3263,0.3272,0.3279,0.3304,0.3321,0.3338,0.3347,0.3357,0.3352,0.3365,0.3399,0.3385,0.3446,0.346,0.3477,0.349,0.3502,0.354,0.3627,0.3655,0.3355,0.3355,0.3355,0,0,0.3177,0.321,0.3216,0.3269,0.3271,0.3292,0.3293,0.3348,0.3392,0.3357,0.3406,0.3404,0.3383,0.3431,0.3458,0.3436,0.3587,0.3502,0.3513,0.3545,0.3631,0.3662,0.3689,0.3355,0.3355,0.3355,0,0,0.3228,0.3236,0.3274,0.3296,0.3353,0.3348,0.3385,0.3407,0.3445,0.351,0.3474,0.3551,0.3542,0.3573,0.358,0.3661,0.3639,0.3609,0.3752,0.3837,0.3865,0.389,0.3939,0.3967,0.3633,0.3634,0.3634,0,0.3244,0.3279,0.3299,0.3341,0.3361,0.3379,0.3415,0.3449,0.3502,0.3552,0.3553,0.36,0.363,0.371,0.3743,0.371,0.3709,0.3715,0.3865,0.389,0.3912,0.3956,0.3985,0.3643,0.3642,0.3641,0.364,0,0.3301,0.3332,0.3354,0.3386,0.3425,0.3456,0.3503,0.3565,0.3612,0.3647,0.3759,0.38,0.3845,0.3857,0.3849,0.3991,0.3922,0.3869,0.3854,0.3957,0.3993,0.4019,0.3657,0.3654,0.3651,0.3648,0,0,0.3286,0.3374,0.3369,0.3392,0.3444,0.347,0.3567,0.365,0.3742,0.3807,0.3919,0.4016,0.4051,0.4061,0.4062,0.4169,0.4369,0.4103,0.4103,0.4199,0.4521,0.432,0.4328,0.4327,0.4333,0.4337,0.4483,0,0.3305,0.3373,0.3429,0.3468,0.3479,0.3545,0.3628,0.3724,0.3832,0.3937,0.4031,0.4119,0.4116,0.4179,0.4288,0.4359,0.4444,0.4332,0.4364,0.4366,0.4216,0.4355,0.4028,0.4116,0.4508,0.4512,0.4516,0,0.3315,0.3353,0.3417,0.35,0.3515,0.357,0.3712,0.3807,0.3974,0.4058,0.4184,0.4238,0.4434,0.4385,0.4614,0.4528,0.4546,0.4583,0.4587,0.4356,0.4214,0.4071,0.4148,0.4558,0.4555,0.4552,0.4549,0,0.3248,0.3331,0.3383,0.3398,0.351,0.3598,0.3668,0.3852,0.3953,0.4153,0.4254,0.4424,0.4516,0.4642,0.4752,0.4704,0.4937,0.4874,0.4688,0.4672,0.4383,0.4331,0.4989,0.4988,0.4988,0.4988,0.4987,0,0.3229,0.3248,0.3364,0.3375,0.3426,0.357,0.3738,0.3807,0.4015,0.4115,0.4312,0.4418,0.4583,0.472,0.4807,0.4847,0.499,0.4759,0.4721,0.4432,0.4385,0.4742,0.4711,0.4993,0.4992,0.4991,0.499,0,0.3157,0.3235,0.3236,0.3349,0.34,0.3427,0.3667,0.3827,0.402,0.4167,0.4229,0.443,0.4627,0.4766,0.4941,0.4878,0.4975,0.4902,0.4533,0.4447,0.464,0.4617,0.4789,0.4783,0.4779,0.4775,0.4772,0,0.3128,0.3148,0.3162,0.321,0.3275,0.3417,0.3565,0.3743,0.3862,0.4164,0.4162,0.4413,0.4495,0.4698,0.4696,0.4785,0.4865,0.4428,0.4291,0.4687,0.4633,0.4617,0.4601,0.3994,0.3985,0.3978,0.3971,0,0.3063,0.3064,0.3084,0.3135,0.3237,0.3338,0.3503,0.355,0.379,0.3924,0.4063,0.4195,0.4345,0.426,0.4298,0.4302,0.442,0.4268,0.4838,0.4061,0.394,0.3884,0.3895,0.3904,0.3911,0.3915,0.3919,0.3922,0.3004,0.2967,0.3037,0.3043,0.3149,0.3219,0.329,0.343,0.3505,0.3592,0.3793,0.3872,0.39,0.3828,0.3756,0.3723,0.4007,0.384,0.3864,0.3896,0.3744,0.3617,0.3493,0.3497,0.3501,0.3504,0.3507,0,0.2936,0.2973,0.3009,0.2984,0.3038,0.3156,0.3244,0.3272,0.3262,0.332,0.3398,0.3192,0.3142,0.3241,0.3087,0.3058,0.3042,0.2935,0.2908,0.2979,0.3041,0.2844,0.2355,0.2351,0.2347,0.2344,0,0,0.2933,0.2909,0.2869,0.2836,0.2943,0.2967,0.2998,0.2935,0.2914,0.2811,0.279,0.3007,0.3147,0.2713,0.2653,0.2487,0.2707,0.2389,0.3324,0.3366,0.3422,0.3585,0.3364,0,0,0,0,0]},{"header":{"parameterUnit":"m.s-1","parameterCategory":2,"la1":30.2991,"la2":30.254,"lo1":-89.0895,"lo2":-89.0444,"dy":0.0017,"dx":0.0017,"nx":28,"ny":28,"refTime":"2024-07-17T03:00:00:Z","depth":"2","parameterNumber":3,"parameterNumberName":"V-component_of_CURRENTS"},"data":[0,0,0,0,0,0,0,0,0,0,0,0,0,0,0,0,0,0,0,0,0,0,0,0,0,0,0,0,0,0,0,0,0,0,0,0,0,0,0,0,0,0,0,0,0,0,0,0,0,0,0,0,0,0,0,0,0,0,0.0003,0.0002,0,-0.005,-0.0051,-0.0051,-0.0081,-0.0081,-0.0081,-0.0081,-0.0176,-0.0178,-0.0181,0,0,0,0,0,0,0,0,0,0,0,0,0,0.0,0.0001,0.0003,0.0002,0.0002,-0.005,-0.0051,-0.0052,-0.0081,-0.0081,-0.0081,-0.0081,-0.0175,-0.0178,-0.0181,0,0,0,0,0,0,0,0,0,0,0,0,0,-0.0021,0.0001,0.0003,-0.0018,-0.002,-0.005,-0.0051,-0.0052,-0.0081,-0.0081,-0.0081,-0.0081,-0.0174,-0.0178,-0.0182,-0.0206,0,0,-0.0193,-0.0195,0,0,0,0,0,0,0,0,-0.002,-0.0021,-0.0015,-0.0017,-0.0019,-0.0058,-0.0086,-0.0105,-0.0081,-0.006,-0.0081,-0.0081,-0.0139,-0.0146,-0.0157,-0.0211,-0.0215,-0.0194,-0.0196,-0.0198,-0.0199,0,0,0,0,0,0,0,-0.0018,-0.002,-0.0019,-0.0015,-0.0018,-0.0052,-0.0054,-0.009,-0.0101,-0.0061,-0.0063,-0.0067,-0.0141,-0.0154,-0.016,-0.0216,-0.0194,-0.0197,-0.0199,-0.0201,-0.0276,-0.0276,0,0,0,0,0,0,-0.0005,-0.0018,-0.0018,-0.0021,-0.0018,-0.0051,-0.0054,-0.0047,-0.01,-0.0107,-0.0067,-0.0068,-0.0147,-0.0156,-0.0164,-0.0165,-0.0198,-0.0201,-0.0203,-0.0277,-0.0276,-0.0276,0,0,0,0,0,0,-0.0004,-0.0004,-0.0016,-0.002,-0.0024,-0.005,-0.0042,-0.0048,-0.0053,-0.0103,-0.0112,-0.0066,-0.0147,-0.0158,-0.0178,-0.017,-0.0203,-0.0206,-0.0277,-0.0276,-0.0276,-0.0188,0,0,0,0,0,0,-0.0004,-0.0003,0.0006,-0.0019,-0.0023,-0.0014,-0.0042,-0.0049,-0.0055,-0.0057,-0.0105,-0.0115,-0.0148,-0.0172,-0.0182,-0.0176,-0.0209,-0.0277,-0.0277,-0.0276,-0.0191,-0.0185,-0.0179,0,0,0,0,0,-0.0004,0.0014,0.0007,0.0007,-0.0009,-0.0013,-0.0018,-0.0039,-0.0055,-0.0046,-0.0079,-0.0113,-0.0176,-0.0175,-0.0187,-0.0181,-0.0278,-0.0277,-0.0276,-0.0194,-0.0186,-0.0179,0,0,0,0,0,0,0.0022,0.0012,0.0004,0.0019,0.0011,-0.0017,-0.0014,-0.0032,-0.0053,-0.0054,-0.0106,-0.0117,-0.0135,-0.017,-0.0167,-0.0203,-0.0234,-0.0236,-0.0168,-0.0161,-0.0155,-0.0121,-0.0213,0,0,0,0,0,0.0031,0.0041,0.0027,0.004,0.0039,0.0012,0.0006,-0.0003,-0.0026,-0.0034,-0.0075,-0.0115,-0.0144,-0.0159,-0.0195,-0.021,-0.0235,-0.0217,-0.0211,-0.0205,-0.0186,-0.0196,-0.0188,-0.0274,-0.0274,-0.0274,0,0,0.004,0.004,0.0042,0.0045,0.0035,0.004,0.0009,0.0014,0.0019,-0.0043,-0.0056,-0.0097,-0.0145,-0.016,-0.0172,-0.0185,-0.02,-0.0204,-0.0199,-0.0183,-0.0195,-0.0186,-0.0178,-0.0273,-0.0273,-0.0273,0,0,0.0072,0.0069,0.0089,0.0091,0.009,0.0069,0.0075,0.0051,0.0045,0.0029,-0.0013,-0.0034,-0.0098,-0.0115,-0.0135,-0.0116,-0.0168,-0.0144,-0.0081,-0.0091,-0.0083,-0.0077,-0.0117,-0.0114,-0.0137,-0.0137,-0.0137,0,0.0088,0.011,0.0094,0.012,0.0128,0.0086,0.0113,0.0096,0.0066,0.0074,0.0037,-0.0032,-0.007,-0.0075,-0.0066,-0.0099,-0.0126,-0.0103,-0.008,-0.0074,-0.0069,-0.0111,-0.011,-0.0133,-0.0133,-0.0134,-0.0134,0,0.0138,0.0153,0.0167,0.018,0.0188,0.0204,0.0186,0.0187,0.0158,0.0137,0.0121,0.0061,0.0032,0.0004,-0.0025,-0.001,-0.0051,-0.0071,-0.0091,-0.0054,-0.0103,-0.0103,-0.0126,-0.0128,-0.0129,-0.013,0,0,0.0181,0.0198,0.0204,0.023,0.0227,0.0246,0.0258,0.0266,0.0292,0.0231,0.025,0.0189,0.0157,0.0133,0.0083,0.0068,0.0074,0.0022,0.002,-0.0004,0.003,-0.0038,-0.0046,0.0058,0.0059,0.0059,-0.0026,0,0.0226,0.0277,0.0279,0.0328,0.0349,0.0343,0.0369,0.0376,0.0353,0.0354,0.0292,0.0279,0.0204,0.0198,0.0172,0.0131,0.0081,0.0098,-0.0014,-0.0017,-0.007,-0.0045,-0.0002,-0.0077,-0.0026,-0.0026,-0.0026,0,0.0285,0.0304,0.0363,0.0417,0.0434,0.046,0.0513,0.0538,0.053,0.0516,0.0479,0.042,0.0406,0.0316,0.0246,0.0262,0.0148,0.0078,0.0073,-0.0014,-0.0084,-0.0103,-0.0079,-0.0027,-0.0027,-0.0027,-0.0027,0,0.0332,0.0377,0.0428,0.0445,0.0487,0.0535,0.0565,0.0587,0.0629,0.062,0.0626,0.0575,0.0555,0.0452,0.0318,0.0292,0.021,0.0158,-0.004,-0.0048,-0.0044,-0.0053,0.005,0.005,0.005,0.0051,0.0051,0,0.039,0.0432,0.0455,0.0488,0.0555,0.0599,0.0696,0.0698,0.0746,0.081,0.0718,0.0737,0.0588,0.0512,0.037,0.0194,0.0253,-0.0021,-0.0063,-0.0018,-0.0023,-0.0002,-0.0007,0.0047,0.0048,0.0049,0.0049,0,0.0435,0.0455,0.0509,0.0561,0.0576,0.0637,0.0751,0.082,0.086,0.0933,0.0938,0.0876,0.0808,0.0618,0.0455,0.0261,0.0105,-0.0011,0.0035,-0.0001,-0.0174,-0.0173,-0.0215,-0.0218,-0.022,-0.0222,-0.0224,0,0.0465,0.049,0.0538,0.0566,0.0589,0.0688,0.0753,0.0839,0.0931,0.1035,0.1071,0.1006,0.0981,0.0702,0.0404,0.0124,0.0063,-0.0114,-0.0169,-0.0158,-0.0195,-0.0191,-0.0187,-0.014,-0.0141,-0.0142,-0.0143,0,0.0475,0.0491,0.0521,0.0591,0.0653,0.0759,0.0876,0.0971,0.1119,0.1231,0.1376,0.1375,0.1059,0.0807,0.0342,0.0142,-0.0044,-0.0145,-0.0102,-0.0088,-0.0097,-0.0131,-0.0127,-0.0149,-0.0148,-0.0148,-0.0147,-0.0147,0.0462,0.0477,0.0528,0.0619,0.0703,0.086,0.0994,0.1182,0.1407,0.1611,0.1579,0.16,0.1191,0.0654,0.0287,-0.0111,-0.0111,-0.028,-0.0274,-0.0267,-0.0251,-0.0264,-0.0347,-0.0347,-0.0348,-0.0348,-0.0348,0,0.044,0.0476,0.0553,0.0694,0.0848,0.0875,0.11,0.13,0.1636,0.1746,0.1889,0.1532,0.1175,0.0741,0.015,-0.025,-0.0252,-0.0376,-0.0283,-0.0274,-0.0267,-0.0248,-0.0345,-0.0346,-0.0347,-0.0348,0,0,0.0425,0.0491,0.057,0.0826,0.0929,0.116,0.1308,0.1593,0.177,0.1961,0.1967,0.1835,0.1294,0.0854,0.0341,0.0014,-0.0042,-0.0059,-0.0023,0.0156,0.0168,-0.0179,-0.0136,0,0,0,0,0]}],[{"header":{"parameterUnit":"m.s-1","parameterCategory":2,"la1":30.2991,"la2":30.254,"lo1":-89.0895,"lo2":-89.0444,"dy":0.0017,"dx":0.0017,"nx":28,"ny":28,"refTime":"2024-07-17T03:00:00:Z","depth":"4","parameterNumber":2,"parameterNumberName":"U-component_of_CURRENTS"},"data":[0,0,0,0,0,0,0,0,0,0,0,0,0,0,0,0,0,0,0,0,0,0,0,0,0,0,0,0,0,0,0,0,0,0,0,0,0,0,0,0,0,0,0,0,0,0,0,0,0,0,0,0,0,0,0,0,0,0,0.1637,0.1638,0,0.1696,0.1696,0.1697,0.1728,0.1728,0.1728,0.1728,0.1822,0.1825,0.1828,0,0,0,0,0,0,0,0,0,0,0,0,0,0.1606,0.1606,0.1637,0.1638,0.1638,0.1695,0.1697,0.1698,0.1729,0.1728,0.1728,0.1728,0.1821,0.1825,0.1828,0,0,0,0,0,0,0,0,0,0,0,0,0,0.1639,0.1606,0.1637,0.1659,0.1661,0.1695,0.1697,0.1698,0.1729,0.1728,0.1728,0.1728,0.182,0.1824,0.1828,0.1858,0,0,0.184,0.1842,0,0,0,0,0,0,0,0,0.1637,0.1641,0.1655,0.1657,0.166,0.1702,0.172,0.1752,0.1729,0.1705,0.1728,0.1728,0.1784,0.1791,0.1806,0.1862,0.1866,0.1841,0.1843,0.1845,0.1846,0,0,0,0,0,0,0,0.1635,0.1639,0.1663,0.1656,0.1659,0.1684,0.1688,0.1727,0.1748,0.1707,0.1709,0.1712,0.1786,0.1802,0.1808,0.1867,0.1841,0.1844,0.1847,0.1848,0.1946,0.1947,0,0,0,0,0,0,0.1621,0.1636,0.1661,0.1664,0.1645,0.1684,0.1689,0.1691,0.1747,0.1754,0.1712,0.1713,0.1795,0.1803,0.1811,0.1905,0.1845,0.1849,0.1851,0.1946,0.1946,0.1947,0,0,0,0,0,0,0.162,0.1622,0.1658,0.165,0.1656,0.1684,0.1687,0.1692,0.174,0.175,0.1758,0.1758,0.1795,0.1806,0.1854,0.1907,0.185,0.1854,0.1946,0.1946,0.1946,0.2057,0,0,0,0,0,0,0.1619,0.1622,0.164,0.1649,0.1656,0.1695,0.1687,0.1693,0.1739,0.1742,0.1791,0.1797,0.1796,0.1848,0.1858,0.1911,0.1857,0.1946,0.1946,0.1946,0.2053,0.2061,0.2068,0,0,0,0,0,0.1617,0.1627,0.164,0.1644,0.1672,0.1696,0.1704,0.1724,0.1742,0.1767,0.1789,0.1797,0.1857,0.1853,0.1864,0.192,0.1945,0.1946,0.1946,0.205,0.206,0.2068,0,0,0,0,0,0,0.1609,0.1631,0.1646,0.166,0.1688,0.1701,0.1728,0.175,0.1791,0.1807,0.1815,0.1823,0.189,0.1875,0.1869,0.1939,0.1898,0.1901,0.1972,0.1982,0.1989,0.2022,0.186,0,0,0,0,0,0.1619,0.1649,0.1662,0.1683,0.1695,0.1726,0.1748,0.1769,0.1794,0.1814,0.1841,0.1862,0.1896,0.1915,0.1939,0.1986,0.1998,0.2018,0.2026,0.2032,0.2062,0.2135,0.2154,0.1948,0.1948,0.1948,0,0,0.1625,0.1642,0.1659,0.1687,0.1712,0.1734,0.174,0.1786,0.1816,0.1819,0.1878,0.1909,0.1915,0.1966,0.1992,0.1964,0.2087,0.2033,0.204,0.2066,0.2138,0.2159,0.2177,0.1949,0.1948,0.1948,0,0,0.1635,0.1665,0.1688,0.1716,0.1761,0.1773,0.1795,0.1832,0.1864,0.1919,0.1931,0.1988,0.2024,0.2045,0.2057,0.2117,0.2135,0.2121,0.2188,0.2259,0.2278,0.2296,0.2305,0.2322,0.2113,0.2113,0.2113,0,0.1644,0.1663,0.17,0.1726,0.1755,0.1792,0.1822,0.1855,0.1908,0.1953,0.1945,0.2047,0.2061,0.2136,0.2157,0.2143,0.2171,0.2163,0.2276,0.2293,0.2309,0.2314,0.2332,0.2118,0.2118,0.2117,0.2117,0,0.1665,0.1689,0.1705,0.175,0.1794,0.1826,0.187,0.1927,0.1973,0.2013,0.2118,0.2141,0.2207,0.2213,0.2214,0.2331,0.2309,0.2293,0.2268,0.2338,0.2336,0.2353,0.2126,0.2124,0.2123,0.2121,0,0,0.1647,0.1705,0.1715,0.1736,0.1814,0.184,0.1918,0.1991,0.2053,0.2123,0.2206,0.2284,0.2338,0.2354,0.237,0.2428,0.2552,0.2425,0.2426,0.246,0.2692,0.252,0.252,0.2583,0.2587,0.259,0.2636,0,0.1647,0.1676,0.1731,0.1777,0.1786,0.1877,0.1942,0.2035,0.2109,0.2194,0.2271,0.2354,0.2375,0.2428,0.2504,0.2546,0.2608,0.254,0.2597,0.2598,0.246,0.2539,0.2604,0.2648,0.2652,0.2654,0.2656,0,0.1638,0.1657,0.1694,0.1774,0.1797,0.1848,0.1981,0.2064,0.2207,0.2279,0.2406,0.2456,0.258,0.2567,0.2715,0.2683,0.2722,0.2734,0.2735,0.2557,0.2458,0.2568,0.2686,0.2684,0.2682,0.268,0.2678,0,0.157,0.1632,0.1657,0.1685,0.1785,0.1852,0.1942,0.2095,0.2178,0.2357,0.2413,0.2571,0.2651,0.2743,0.2817,0.2787,0.2949,0.2887,0.2758,0.2743,0.2838,0.2819,0.3008,0.3008,0.3008,0.3008,0.3008,0,0.1517,0.1543,0.1623,0.1635,0.1677,0.1822,0.1925,0.2037,0.2219,0.2314,0.2468,0.2538,0.2717,0.2816,0.2859,0.2871,0.2996,0.2796,0.2766,0.2871,0.2857,0.2847,0.2828,0.3009,0.3009,0.3009,0.3008,0,0.1412,0.148,0.149,0.1594,0.1631,0.1677,0.1869,0.1951,0.2155,0.228,0.2343,0.2557,0.2702,0.2823,0.2971,0.2899,0.2928,0.2908,0.3011,0.2981,0.2647,0.2632,0.2718,0.2713,0.2709,0.2705,0.2702,0,0.1343,0.1336,0.1411,0.1421,0.1464,0.1569,0.1643,0.1879,0.1989,0.2258,0.2298,0.2505,0.2624,0.2695,0.2843,0.2905,0.2889,0.285,0.2753,0.2667,0.2629,0.2621,0.2613,0.2695,0.2694,0.2692,0.2691,0,0.1172,0.1218,0.1234,0.1269,0.132,0.1367,0.1517,0.1577,0.1878,0.2043,0.2217,0.2308,0.2467,0.2604,0.2706,0.2736,0.2834,0.2803,0.281,0.2718,0.2639,0.2604,0.2601,0.2676,0.2678,0.268,0.2681,0,0.1044,0.1005,0.106,0.1086,0.1153,0.1184,0.1268,0.1441,0.1587,0.1933,0.1986,0.2226,0.2458,0.2518,0.2598,0.2636,0.257,0.2448,0.2473,0.2491,0.2399,0.2265,0.2185,0,0,0,0,0,0.0892,0.0866,0.088,0.092,0.1006,0.1044,0.1204,0.133,0.1604,0.1677,0.1853,0.2006,0.2154,0.2287,0.2282,0.2443,0.2544,0.2415,0.2406,0.2591,0.2609,0.2524,0,0,0,0,0,0,0.0805,0.0789,0.0818,0.0804,0.0826,0.0894,0.0981,0.1144,0.1244,0.1532,0.1658,0.1847,0.2053,0.2154,0.2237,0.227,0.221,0.258,0.2573,0.2581,0.2597,0.2611,0.253,0,0,0,0,0]},{"header":{"parameterUnit":"m.s-1","parameterCategory":2,"la1":30.2991,"la2":30.254,"lo1":-89.0895,"lo2":-89.0444,"dy":0.0017,"dx":0.0017,"nx":28,"ny":28,"refTime":"2024-07-17T03:00:00:Z","depth":"4","parameterNumber":3,"parameterNumberName":"V-component_of_CURRENTS"},"data":[0,0,0,0,0,0,0,0,0,0,0,0,0,0,0,0,0,0,0,0,0,0,0,0,0,0,0,0,0,0,0,0,0,0,0,0,0,0,0,0,0,0,0,0,0,0,0,0,0,0,0,0,0,0,0,0,0,0,0.0049,0.0049,0,0.0029,0.0028,0.0028,0.0013,0.0013,0.0013,0.0013,-0.0062,-0.0064,-0.0066,0,0,0,0,0,0,0,0,0,0,0,0,0,0.003,0.0031,0.0049,0.0049,0.0049,0.0029,0.0028,0.0028,0.0013,0.0013,0.0013,0.0013,-0.0062,-0.0064,-0.0066,0,0,0,0,0,0,0,0,0,0,0,0,0,0.0026,0.0031,0.0049,0.004,0.0039,0.0029,0.0028,0.0028,0.0013,0.0013,0.0013,0.0013,-0.0061,-0.0064,-0.0067,-0.0084,0,0,-0.0076,-0.0077,0,0,0,0,0,0,0,0,0.0026,0.0027,0.0041,0.004,0.0039,0.0024,-0.0006,-0.0012,0.0013,0.0021,0.0013,0.0013,-0.0038,-0.0043,-0.0047,-0.0087,-0.0091,-0.0076,-0.0078,-0.0079,-0.008,0,0,0,0,0,0,0,0.0027,0.0027,0.004,0.0041,0.004,0.0021,0.0021,-0.0007,-0.001,0.0021,0.002,0.0019,-0.0039,-0.0044,-0.0049,-0.0092,-0.0076,-0.0078,-0.008,-0.0081,-0.015,-0.015,0,0,0,0,0,0,0.0034,0.0028,0.0041,0.0039,0.0034,0.0022,0.0021,0.0028,-0.0008,-0.0013,0.0019,0.0019,-0.0039,-0.0046,-0.0052,-0.0074,-0.0079,-0.0082,-0.0083,-0.015,-0.015,-0.015,0,0,0,0,0,0,0.0034,0.0036,0.0041,0.0033,0.0033,0.0023,0.003,0.0028,0.0025,-0.0008,-0.0014,0.0019,-0.0039,-0.0048,-0.0072,-0.0077,-0.0083,-0.0086,-0.015,-0.015,-0.015,-0.0119,0,0,0,0,0,0,0.0034,0.0036,0.0044,0.0034,0.0034,0.0041,0.003,0.0027,0.0025,0.0024,-0.0011,-0.0017,-0.004,-0.0067,-0.0075,-0.0081,-0.0088,-0.015,-0.015,-0.015,-0.012,-0.0118,-0.0116,0,0,0,0,0,0.0033,0.0046,0.0044,0.0046,0.0045,0.0042,0.004,0.0031,0.0025,0.0027,0.0003,-0.0016,-0.0073,-0.007,-0.0078,-0.0086,-0.015,-0.015,-0.015,-0.012,-0.0118,-0.0116,0,0,0,0,0,0,0.0044,0.0045,0.0044,0.0057,0.0052,0.004,0.0042,0.0034,0.0017,0.0017,-0.0017,-0.0026,-0.0051,-0.0071,-0.0066,-0.0106,-0.0115,-0.0117,-0.009,-0.0088,-0.0086,-0.0076,-0.0091,0,0,0,0,0,0.005,0.0059,0.0055,0.0065,0.0065,0.0053,0.0051,0.0047,0.0032,0.0025,-0.0004,-0.0033,-0.0059,-0.0074,-0.0101,-0.0122,-0.015,-0.0132,-0.013,-0.0129,-0.0126,-0.0174,-0.0176,-0.0151,-0.0151,-0.0151,0,0,0.0053,0.0058,0.0061,0.0067,0.0062,0.0068,0.0052,0.0055,0.0055,0.0018,0.0002,-0.003,-0.0064,-0.0087,-0.01,-0.0103,-0.0151,-0.0129,-0.0127,-0.0126,-0.0175,-0.0177,-0.0179,-0.0151,-0.0151,-0.0151,0,0,0.0069,0.0073,0.0085,0.0087,0.009,0.0083,0.0086,0.0073,0.0063,0.0044,0.0017,-0.0016,-0.0057,-0.0083,-0.01,-0.0105,-0.0141,-0.0113,-0.0096,-0.0142,-0.0144,-0.0147,-0.0184,-0.0191,-0.011,-0.011,-0.011,0,0.0077,0.0096,0.0087,0.0102,0.0109,0.0092,0.0107,0.0094,0.0072,0.0067,0.0043,-0.0023,-0.0057,-0.0083,-0.0086,-0.0102,-0.0129,-0.01,-0.0139,-0.0143,-0.0146,-0.0184,-0.0191,-0.0108,-0.0109,-0.0109,-0.0109,0,0.0101,0.0118,0.0127,0.0141,0.0142,0.0155,0.0141,0.0139,0.0118,0.0098,0.006,0.0003,-0.0029,-0.0054,-0.0074,-0.0108,-0.012,-0.0133,-0.0144,-0.0146,-0.0186,-0.0195,-0.0106,-0.0107,-0.0107,-0.0108,0,0,0.0123,0.0142,0.0148,0.017,0.017,0.0182,0.018,0.018,0.0191,0.0133,0.0122,0.0053,0.002,-0.0002,-0.0042,-0.0092,-0.0144,-0.0118,-0.0121,-0.0152,-0.0241,-0.0234,-0.0243,-0.0164,-0.0165,-0.0166,-0.0259,0,0.0151,0.0196,0.0188,0.0229,0.0254,0.0243,0.0252,0.0246,0.0218,0.02,0.0125,0.0097,0.0041,0.0027,-0.0035,-0.0115,-0.0164,-0.0117,-0.0236,-0.0239,-0.0231,-0.0252,-0.017,-0.0265,-0.0267,-0.0268,-0.0269,0,0.0183,0.0214,0.0263,0.03,0.031,0.0331,0.0357,0.0359,0.0325,0.0302,0.0245,0.0182,0.0103,0.0053,-0.0095,-0.0061,-0.0144,-0.0217,-0.0222,-0.0232,-0.0248,-0.0264,-0.0285,-0.0283,-0.0282,-0.0281,-0.028,0,0.0227,0.0267,0.0315,0.0329,0.0364,0.0392,0.0408,0.0399,0.0418,0.0369,0.0361,0.0249,0.0198,0.0067,-0.0084,-0.0089,-0.0252,-0.0276,-0.0351,-0.0351,-0.0342,-0.0339,-0.0379,-0.0379,-0.0379,-0.0379,-0.0378,0,0.0268,0.0308,0.0352,0.0387,0.0465,0.0456,0.0523,0.0523,0.0515,0.0536,0.0424,0.0397,0.0198,0.0078,-0.0065,-0.0229,-0.0235,-0.0353,-0.0378,-0.0326,-0.032,-0.0348,-0.0343,-0.0382,-0.0381,-0.0381,-0.038,0,0.0306,0.0332,0.0401,0.0461,0.0495,0.0552,0.0622,0.0665,0.0641,0.0656,0.0644,0.0509,0.0346,0.0148,-0.0069,-0.0187,-0.0351,-0.0403,-0.0324,-0.0342,-0.0428,-0.042,-0.0508,-0.0509,-0.0509,-0.051,-0.051,0,0.0327,0.0372,0.0472,0.0535,0.0572,0.0658,0.073,0.0745,0.0778,0.0726,0.0734,0.058,0.0468,0.0173,-0.0047,-0.0322,-0.0359,-0.0441,-0.0456,-0.0428,-0.0443,-0.0434,-0.0426,-0.0511,-0.0511,-0.0511,-0.0512,0,0.038,0.0419,0.0483,0.0612,0.0708,0.08,0.0883,0.0919,0.092,0.0899,0.0818,0.0638,0.0448,0.0188,-0.0022,-0.022,-0.0393,-0.0448,-0.0448,-0.0463,-0.0432,-0.0445,-0.0436,-0.0513,-0.0513,-0.0513,-0.0513,0,0.0422,0.0479,0.0574,0.0683,0.0797,0.089,0.0936,0.0971,0.1,0.0934,0.091,0.0684,0.0551,0.0242,0.0049,-0.0151,-0.0215,-0.0278,-0.0289,-0.029,-0.0207,-0.0135,-0.0149,0,0,0,0,0,0.0464,0.0535,0.0638,0.0754,0.0855,0.0921,0.1015,0.1041,0.1047,0.1013,0.096,0.0784,0.046,0.0313,0.0115,0.0017,-0.026,-0.0223,-0.0339,-0.0523,-0.0521,-0.0462,0,0,0,0,0,0,0.0495,0.0596,0.0645,0.0782,0.0861,0.098,0.1039,0.1049,0.1024,0.0993,0.0832,0.0737,0.0429,0.0577,0.0111,0.0046,-0.0054,-0.0376,-0.0381,-0.0524,-0.0523,-0.0521,-0.0459,0,0,0,0,0]}]]